sat.trackr.live / text

‹ back to catalog

STARLINK-4278

NORAD 53182 · 2022-083BC

PAYLOAD ACTIVE UNKNOWN

§ Identity

Operator
Country
US
Launch date
2022-07-17
Launch site
AFETR
Launch vehicle
Mass (kg)
RCS (m²)

Purposes: comms

External: N2YO · Heavens-Above · Gunter

§ Orbital elements

Epoch: 2026-05-25T00:41:25.378944Z

Period
95.44 min
Inclination
53.2140°
Eccentricity
0.0000932
Mean motion
15.08840319 rev/d
Perigee alt
539.1 km
Apogee alt
540.4 km
Semi-major
6,917.9 km
B*
2.2193e-5
RAAN
156.4104°
Arg perigee
81.6639°
Mean anomaly
278.4458°
Rev number
21,322

§ Raw data

STARLINK-42781 53182U 22083BC  26145.02876596  .00000065  00000+0  22193-4 0  99962 53182  53.2140 156.4104 0000932  81.6639 278.4458 15.08840319213221

JSON: /api/v1/satellites/53182 · /tle

For live sub-satellite position, see the globe view (requires WebGL).

§ Visibility from observer

Set your observer location to see the next 7 days of passes ≥ 10°. The values pass through the URL so the page stays shareable.

No JS? Fill the form by hand. The geolocation button needs JavaScript.